WJA1742 CYEG-MMPR

Flight info

Callsign WJA1742
Flight time N/A
Altitude 35000
Route CYEG OMVOL MIPOT EBGAL TOVUM KEETA PROXI CORKR PXR ALGUN NABAS CUL XUBUD MUVBA PR407 PR405 PR404 MMPR
Aircraft B737/M-SDE2E3FGHIRWY/LB1

Departure

Time N/A
Airport Edmonton International Airport (CYEG)

Arrival

Time 2026-05-08 05:07
Airport Puerto Vallarta International Airport (MMPR)
Time Latitude Longitude Altitude Speed Heading
2026-05-08 04:24 24.52235 -107.03836 35040 ft 459 kts 164°
2026-05-08 04:24 24.49428 -107.02330 35045 ft 459 kts 163°
2026-05-08 04:25 24.43670 -106.99244 35041 ft 460 kts 164°
2026-05-08 04:25 24.37919 -106.96166 35032 ft 460 kts 163°
2026-05-08 04:26 24.32158 -106.93085 35023 ft 458 kts 162°
2026-05-08 04:26 24.26378 -106.90000 35028 ft 462 kts 163°
2026-05-08 04:27 24.20631 -106.86937 35021 ft 462 kts 164°
2026-05-08 04:27 24.14849 -106.83850 35040 ft 461 kts 162°
2026-05-08 04:28 24.10046 -106.81290 35029 ft 461 kts 163°
2026-05-08 04:28 24.04264 -106.78213 35034 ft 461 kts 162°
2026-05-08 04:29 23.98515 -106.75161 35016 ft 463 kts 162°
2026-05-08 04:29 23.92694 -106.72070 35015 ft 464 kts 163°
2026-05-08 04:30 23.86900 -106.68996 35019 ft 464 kts 161°
2026-05-08 04:30 23.81082 -106.65912 35019 ft 464 kts 163°
2026-05-08 04:31 23.75252 -106.62824 35017 ft 465 kts 162°
2026-05-08 04:31 23.69468 -106.59765 35007 ft 465 kts 161°
2026-05-08 04:32 23.63622 -106.56676 35005 ft 465 kts 163°
2026-05-08 04:32 23.57805 -106.53605 35012 ft 465 kts 161°
2026-05-08 04:33 23.51998 -106.50543 35014 ft 465 kts 162°
2026-05-08 04:33 23.46193 -106.47487 35014 ft 466 kts 163°
2026-05-08 04:34 23.41162 -106.44836 35016 ft 465 kts 161°
2026-05-08 04:34 23.35353 -106.41780 35008 ft 466 kts 161°
2026-05-08 04:35 23.29499 -106.38705 35011 ft 467 kts 163°
2026-05-08 04:35 23.23655 -106.35639 35008 ft 466 kts 161°
2026-05-08 04:36 23.17916 -106.32627 35002 ft 466 kts 161°
2026-05-08 04:36 23.12093 -106.29576 35008 ft 466 kts 162°
2026-05-08 04:37 23.06253 -106.26522 35015 ft 466 kts 162°
2026-05-08 04:37 23.00380 -106.23450 35012 ft 467 kts 161°
2026-05-08 04:38 22.94546 -106.20401 35010 ft 467 kts 161°
2026-05-08 04:38 22.88676 -106.17338 35003 ft 468 kts 161°
2026-05-08 04:39 22.82797 -106.14275 35001 ft 468 kts 161°
2026-05-08 04:39 22.76951 -106.11227 34832 ft 468 kts 162°
2026-05-08 04:40 22.74010 -106.09700 34274 ft 475 kts 160°
2026-05-08 04:40 22.71016 -106.08145 33741 ft 474 kts 161°
2026-05-08 04:40 22.68090 -106.06614 33170 ft 472 kts 161°
2026-05-08 04:40 22.65140 -106.05037 32604 ft 475 kts 160°
2026-05-08 04:41 22.62209 -106.03452 32036 ft 478 kts 159°
2026-05-08 04:41 22.59196 -106.01811 31488 ft 479 kts 160°
2026-05-08 04:41 22.56241 -106.00199 30956 ft 480 kts 160°
2026-05-08 04:41 22.53328 -105.98615 30441 ft 480 kts 158°
2026-05-08 04:42 22.50316 -105.96983 29907 ft 481 kts 158°
2026-05-08 04:42 22.47315 -105.95363 29295 ft 482 kts 158°
2026-05-08 04:42 22.44348 -105.93759 28708 ft 482 kts 158°
2026-05-08 04:42 22.41341 -105.92132 28126 ft 482 kts 159°
2026-05-08 04:43 22.38339 -105.90512 27549 ft 483 kts 156°
2026-05-08 04:43 22.35315 -105.88882 26994 ft 484 kts 159°
2026-05-08 04:43 22.32310 -105.87265 26434 ft 485 kts 156°
2026-05-08 04:43 22.29420 -105.85709 25925 ft 485 kts 158°
2026-05-08 04:44 22.26409 -105.84087 25398 ft 485 kts 156°
2026-05-08 04:44 22.23383 -105.82457 24852 ft 483 kts 157°
2026-05-08 04:44 22.20410 -105.80856 24279 ft 476 kts 158°
2026-05-08 04:44 22.17432 -105.79251 23667 ft 470 kts 158°
2026-05-08 04:45 22.14549 -105.77700 22923 ft 465 kts 156°
2026-05-08 04:45 22.11647 -105.76139 22153 ft 461 kts 156°
2026-05-08 04:45 22.08830 -105.74625 21421 ft 454 kts 155°
2026-05-08 04:45 22.06006 -105.73106 20687 ft 441 kts 155°
2026-05-08 04:46 22.03323 -105.71661 19982 ft 428 kts 157°
2026-05-08 04:46 22.00660 -105.70229 19277 ft 417 kts 156°
2026-05-08 04:46 21.98087 -105.68849 18600 ft 408 kts 155°
2026-05-08 04:46 21.95564 -105.67498 17890 ft 401 kts 156°
2026-05-08 04:47 21.93113 -105.66187 17137 ft 394 kts 155°
2026-05-08 04:47 21.90700 -105.64897 16429 ft 388 kts 155°
2026-05-08 04:47 21.88302 -105.63614 15940 ft 377 kts 156°
2026-05-08 04:47 21.85982 -105.62371 15452 ft 367 kts 156°
2026-05-08 04:48 21.83726 -105.61163 14994 ft 359 kts 155°
2026-05-08 04:48 21.81510 -105.59979 14523 ft 352 kts 156°
2026-05-08 04:48 21.79334 -105.58818 14068 ft 345 kts 156°
2026-05-08 04:48 21.77205 -105.57681 13726 ft 336 kts 156°
2026-05-08 04:49 21.75195 -105.56606 13726 ft 317 kts 156°
2026-05-08 04:49 21.73237 -105.55560 13419 ft 309 kts 156°
2026-05-08 04:49 21.71354 -105.54555 13165 ft 300 kts 156°
2026-05-08 04:49 21.69506 -105.53570 12908 ft 292 kts 156°
2026-05-08 04:50 21.67701 -105.52608 12661 ft 288 kts 156°
2026-05-08 04:50 21.65905 -105.51652 12414 ft 288 kts 156°
2026-05-08 04:50 21.64113 -105.50699 12169 ft 288 kts 156°
2026-05-08 04:50 21.62328 -105.49748 12057 ft 284 kts 156°
2026-05-08 04:51 21.60553 -105.48803 12096 ft 281 kts 156°
2026-05-08 04:51 21.58791 -105.47865 12105 ft 286 kts 156°
2026-05-08 04:51 21.57009 -105.46918 12120 ft 290 kts 156°
2026-05-08 04:51 21.55199 -105.45956 11949 ft 294 kts 156°
2026-05-08 04:52 21.53353 -105.44974 11638 ft 296 kts 156°
2026-05-08 04:52 21.51510 -105.43993 11272 ft 293 kts 156°
2026-05-08 04:52 21.49687 -105.43022 10922 ft 290 kts 156°
2026-05-08 04:52 21.47888 -105.42064 10768 ft 279 kts 156°
2026-05-08 04:53 21.46228 -105.41178 10803 ft 262 kts 156°
2026-05-08 04:53 21.44635 -105.40328 10754 ft 250 kts 156°
2026-05-08 04:53 21.43070 -105.39496 10510 ft 248 kts 156°
2026-05-08 04:53 21.41525 -105.38676 10389 ft 246 kts 156°
2026-05-08 04:54 21.39974 -105.37855 10285 ft 254 kts 156°
2026-05-08 04:54 21.38371 -105.37006 10302 ft 260 kts 156°
2026-05-08 04:54 21.36744 -105.36144 10296 ft 264 kts 156°
2026-05-08 04:54 21.35097 -105.35270 10302 ft 263 kts 156°
2026-05-08 04:55 21.33455 -105.34399 10295 ft 262 kts 156°
2026-05-08 04:55 21.31840 -105.33542 10297 ft 261 kts 156°
2026-05-08 04:55 21.30199 -105.32671 10298 ft 261 kts 156°
2026-05-08 04:55 21.28618 -105.31833 10307 ft 262 kts 156°
2026-05-08 04:56 21.26979 -105.30963 10314 ft 262 kts 156°
2026-05-08 04:56 21.25341 -105.30096 10313 ft 263 kts 156°
2026-05-08 04:56 21.23711 -105.29232 10281 ft 264 kts 156°
2026-05-08 04:56 21.22058 -105.28357 10129 ft 267 kts 156°
2026-05-08 04:57 21.20377 -105.27467 9758 ft 270 kts 156°
2026-05-08 04:57 21.18706 -105.26581 9551 ft 264 kts 156°
2026-05-08 04:57 21.17080 -105.25720 9341 ft 258 kts 156°
2026-05-08 04:57 21.15487 -105.24875 9116 ft 253 kts 156°
2026-05-08 04:58 21.13944 -105.24059 8857 ft 250 kts 155°
2026-05-08 04:58 21.12373 -105.23228 8503 ft 252 kts 155°
2026-05-08 04:58 21.10779 -105.22387 8124 ft 256 kts 155°
2026-05-08 04:58 21.09190 -105.21546 7975 ft 248 kts 155°
2026-05-08 04:59 21.07675 -105.20744 7869 ft 244 kts 155°
2026-05-08 04:59 21.06138 -105.19932 7737 ft 245 kts 155°
2026-05-08 04:59 21.04604 -105.19122 7622 ft 246 kts 155°
2026-05-08 04:59 21.03062 -105.18307 7494 ft 248 kts 155°
2026-05-08 05:00 21.01518 -105.17491 7385 ft 248 kts 155°
2026-05-08 05:00 20.99990 -105.16685 7265 ft 247 kts 154°
2026-05-08 05:00 20.98427 -105.15859 6952 ft 251 kts 154°
2026-05-08 05:00 20.96868 -105.15036 6654 ft 250 kts 154°
2026-05-08 05:01 20.95297 -105.14208 6370 ft 247 kts 154°
2026-05-08 05:01 20.93788 -105.13410 6236 ft 239 kts 154°
2026-05-08 05:01 20.92295 -105.12621 6068 ft 241 kts 153°
2026-05-08 05:01 20.90932 -105.11576 5868 ft 243 kts 136°
2026-05-08 05:02 20.89687 -105.10329 5764 ft 244 kts 137°
2026-05-08 05:02 20.88418 -105.09181 5576 ft 236 kts 141°
2026-05-08 05:02 20.87158 -105.08109 5407 ft 229 kts 141°
2026-05-08 05:02 20.85741 -105.07356 5132 ft 229 kts 171°
2026-05-08 05:03 20.84207 -105.07445 4989 ft 223 kts 199°
2026-05-08 05:03 20.82902 -105.08297 4829 ft 220 kts 224°
2026-05-08 05:03 20.81833 -105.09474 4706 ft 223 kts 229°
2026-05-08 05:03 20.80770 -105.10716 4537 ft 226 kts 228°
2026-05-08 05:04 20.79707 -105.11965 4298 ft 228 kts 229°
2026-05-08 05:04 20.78630 -105.13219 3893 ft 232 kts 228°
2026-05-08 05:04 20.77548 -105.14468 3431 ft 231 kts 227°
2026-05-08 05:04 20.76453 -105.15728 2945 ft 230 kts 227°
2026-05-08 05:05 20.75360 -105.16985 2451 ft 229 kts 226°
2026-05-08 05:05 20.74275 -105.18229 2019 ft 227 kts 227°
2026-05-08 05:05 20.73232 -105.19425 1705 ft 218 kts 227°
2026-05-08 05:05 20.72216 -105.20590 1315 ft 207 kts 227°
2026-05-08 05:06 20.71314 -105.21624 890 ft 193 kts 227°
2026-05-08 05:06 20.70534 -105.22518 521 ft 184 kts 227°
2026-05-08 05:06 20.69699 -105.23480 301 ft 168 kts 227°
2026-05-08 05:06 20.69053 -105.24236 118 ft 157 kts 228°
2026-05-08 05:07 20.68426 -105.24955 27 ft 133 kts 222°
2026-05-08 05:07 20.67880 -105.25560 30 ft 92 kts 229°
2026-05-08 05:07 20.67665 -105.25812 28 ft 32 kts 226°
2026-05-08 05:07 20.67475 -105.25945 27 ft 32 kts 198°
2026-05-08 05:08 20.67368 -105.25969 28 ft 9 kts 167°
2026-05-08 05:08 20.67365 -105.25899 28 ft 15 kts 48°
2026-05-08 05:08 20.67441 -105.25815 28 ft 16 kts 47°
2026-05-08 05:08 20.67525 -105.25719 28 ft 19 kts 49°
2026-05-08 05:09 20.67621 -105.25605 28 ft 22 kts 46°
2026-05-08 05:09 20.67727 -105.25482 28 ft 23 kts 49°
2026-05-08 05:09 20.67821 -105.25374 28 ft 18 kts 47°
2026-05-08 05:09 20.67904 -105.25278 28 ft 17 kts 47°
2026-05-08 05:10 20.67985 -105.25186 28 ft 17 kts 47°
2026-05-08 05:10 20.68041 -105.24983 28 ft 19 kts 156°
2026-05-08 05:10 20.67972 -105.24886 28 ft 14 kts 70°
2026-05-08 05:11 20.67963 -105.24801 28 ft 12 kts 137°
2026-05-08 05:11 20.67908 -105.24781 28 ft 9 kts 220°
2026-05-08 05:11 20.67886 -105.24823 28 ft 0 kts 232°
2026-05-08 05:11 20.67888 -105.24819 28 ft 2 kts 226°
2026-05-08 05:12 20.67907 -105.24799 28 ft 0 kts 227°
2026-05-08 05:12 20.67889 -105.24820 28 ft 0 kts 227°
2026-05-08 05:12 20.67887 -105.24822 28 ft 0 kts 227°
2026-05-08 05:12 20.67884 -105.24826 28 ft 5 kts 227°
2026-05-08 05:13 20.67882 -105.24828 28 ft 0 kts 227°